{"data":{"norad_id":64675,"intl_designator":"2025-139M","name":"STARLINK-34590","alt_names":[],"object_type":"PAYLOAD","status":"ACTIVE","operator":null,"country":"US","launch_date":"2025-06-28","launch_site_code":"AFETR","launch_vehicle":null,"mission":null,"orbit_class":"UNKNOWN","rcs_meters":null,"size_class":null,"mass_kg":null,"dimensions":null,"purposes":["comms"],"wikipedia_slug":null,"has_3d_model":false,"image_url":null,"decayed_at":null,"tle_current":{"epoch":"2026-09-20T09:31:36.092928Z","epoch_age_seconds":140263,"freshness":"FRESH","line1":"1 64675U 25139M   26263.39694552  .00015863  00000+0  47947-3 0  9996","line2":"2 64675  53.1583 299.8801 0001165  80.9190 279.1944 15.34411103 70132","mean_motion":15.34411103,"eccentricity":0.0001165,"inclination_deg":53.1583,"raan_deg":299.8801,"arg_perigee_deg":80.919,"mean_anomaly_deg":279.1944,"bstar":0.00047947,"rev_number":7013,"period_min":93.84707899888,"perigee_km":461.87328590679,"apogee_km":463.4671939937,"semimajor_km":6840.8072399502,"source":"CELESTRAK","updated_at":"2026-09-21T09:00:35.399210Z"}}}